Location: Blankensee
(53.5126°N, 14.3055°E)
Time: 18:17:20
(UTC+00:00)

SL-16 R/B - Pass Details

Date: 08 August 2020
Orbit: 840 x 849 km, 71.0° (Epoch: 19 September)

Event Time Altitude Azimuth Distance (km) Brightness Sun altitude
Rises 01:44:11 0° 324° (NW) 3,426 5.6 -12.8°
Reaches altitude 10° 01:46:48 10° 316° (NW) 2,486 4.7 -12.6°
Maximum altitude 01:51:57 36° 252° (WSW) 1,317 2.8 -12.1°
Drops below altitude 10° 01:57:04 10° 187° (S) 2,468 4.1 -11.6°
Enters shadow 01:57:16 - 186° (S) 2,538 4.2 -11.6°
